CAPE
0 0 0 0 1 0 0 0 0 0 0 0 0 0 0 0 0 0 0 0 0 1 2 2 1 2 0 0 0 0 0 0 0 0 0 0 0 0 0 0 1 1 1 0
0 0 0 0 0 0 0 0 0 0 0 0 0 0 0 0 0 0 0 0 0 1 3 2 3 3 0 0 0 0 0 0 0 0 0 1 0 1 0 1 1 0 0 1
0 0 0 0 0 0 0 0 0 0 0 0 0 0 0 0 0 0 0 2 1 5 1 3 3 2 0 0 0 0 0 0 0 0 1 1 2 1 1 1 0 0 1 0
0 0 0 0 0 0 0 0 0 0 0 0 0 0 0 0 0 0 1 3 0 0 1 2 1 0 0 0 0 0 0 0 0 0 0 1 2 4 3 2 0 0 1 1
0 0 0 0 0 0 0 0 0 0 0 0 0 0 0 0 0 1 1 6 0 0 1 0 3 1 0 0 0 0 0 0 0 0 2 1 1 0 3 3 0 0 0 0
0 0 0 0 0 0 0 0 0 0 0 0 0 0 0 0 0 6 3 1 2 0 0 0 2 1 0 0 0 0 0 0 0 0 1 1 2 3 1 3 1 0 0 0
0 0 0 0 0 0 0 0 0 0 0 0 0 0 0 0 2 3 3 3 1 0 0 1 0 0 1 0 0 0 0 0 0 0 0 2 2 1 2 0 1 0 0 0
0 0 0 0 0 0 0 0 0 0 0 0 0 0 0 0 0 2 1 0 1 0 0 0 0 0 3 2 1 0 0 0 0 0 0 1 1 0 1 0 2 1 1 0
0 0 0 0 0 0 0 0 0 0 0 0 0 0 0 0 0 3 0 0 0 0 0 0 0 1 1 2 1 1 2 2 1 0 0 1 2 1 2 0 1 1 0 0
0 0 0 0 0 0 0 0 0 0 0 0 0 0 0 0 0 0 0 0 0 1 0 0 0 0 0 0 1 1 1 1 3 2 0 0 1 1 0 1 0 0 0 0
0 0 0 0 0 0 0 0 0 0 0 0 0 0 0 0 0 0 0 1 1 1 1 1 0 0 1 1 1 2 1 1 2 2 1 0 0 1 0 1 0 0 0 0
0 0 0 0 0 0 0 0 1 0 0 0 0 0 0 0 0 0 0 0 0 0 1 2 0 0 0 0 1 2 2 1 1 1 1 2 1 0 0 0 0 0 0 0
0 0 0 0 0 0 0 0 0 0 0 0 0 0 0 0 0 0 1 0 0 0 1 4 3 0 0 0 0 1 1 1 1 1 2 2 2 0 0 0 0 0 0 0
0 0 0 0 0 0 0 0 0 0 0 1 0 0 0 0 0 0 0 0 0 1 0 2 0 0 0 0 0 0 1 0 0 1 1 2 1 0 0 0 0 0 0 0
0 0 0 0 0 0 0 0 0 0 0 0 0 0 0 0 0 0 0 0 0 0 0 0 0 0 0 0 0 1 0 0 0 0 1 1 0 0 0 0 0 0 0 0
0 0 0 0 0 0 0 0 0 0 0 0 0 0 0 0 0 0 0 0 0 1 0 0 0 0 0 0 1 1 1 1 0 1 2 0 1 0 0 0 0 0 0 0
0 0 0 0 0 0 0 0 0 0 0 0 0 0 0 0 0 0 0 0 0 0 0 0 0 0 0 0 0 1 1 1 0 1 0 1 0 1 1 0 0 0 0 0
0 0 0 0 0 0 0 0 0 0 0 0 0 0 0 0 0 0 0 0 0 0 0 0 0 0 0 0 0 0 0 0 1 1 1 0 0 1 1 0 0 0 0 0
1 0 0 0 0 0 0 0 0 0 0 0 0 0 0 0 0 0 0 0 0 0 0 0 0 0 0 0 0 0 1 0 0 0 1 0 0 1 0 1 0 0 0 0
0 0 1 1 0 0 0 0 0 0 0 0 0 0 0 0 0 0 0 0 0 0 0 0 0 0 0 0 0 0 0 0 1 0 0 0 0 1 1 1 0 0 0 0
0 0 0 0 0 0 0 0 0 0 0 0 0 0 0 0 0 0 0 0 0 0 0 0 0 0 0 0 0 0 0 0 0 0 2 1 1 1 1 0 0 0 0 0
0 0 0 0 0 0 0 0 0 0 0 0 0 0 0 0 0 0 0 0 0 0 0 0 0 0 0 0 0 0 0 0 0 1 1 2 1 1 0 0 0 0 0 0
0 0 0 0 0 0 0 0 0 0 0 0 0 0 0 0 0 0 0 0 0 0 0 0 0 0 0 0 0 0 0 0 1 0 1 1 1 1 0 0 0 0 0 0
0 0 0 0 0 0 0 0 0 0 0 0 0 0 0 0 0 0 0 0 0 0 0 0 0 0 0 0 0 0 0 0 0 0 0 0 1 1 1 0 0 0 0 0
0 0 0 0 0 0 0 0 0 0 0 0 0 0 0 0 0 0 0 0 0 0 0 0 0 0 0 0 0 0 0 0 0 0 0 1 0 0 0 0 0 0 0 0
0 0 0 0 0 0 1 0 0 0 0 0 0 0 0 0 0 0 0 0 0 0 0 0 0 0 0 0 0 0 0 0 0 0 0 1 0 0 1 0 0 0 0 0
0 0 0 0 0 0 0 0 0 0 0 0 0 0 0 0 0 0 0 0 0 0 0 0 0 0 0 0 0 0 0 0 0 0 0 0 0 0 0 1 0 0 0 0
CIN
-0 -0 -0 -0 -0 -0 -0 -0 -0 -0 -0 -0 -0 -0 -0 -0 -0 -0 -0 -0 -0 -0 -0 -0 -0 -0 -0 -0 -0 -0 -0 -0 -0 -0 -0 -0 -0 -0 -0 -0 -0 -0 -0 -0
-0 -0 -0 -0 -0 -0 -0 -0 -0 -0 -0 -0 -0 -0 -0 -0 -0 -0 -0 -0 -0 -1 -0 -0 -0 -0 -0 -0 -0 -0 -0 -0 -0 -0 -0 -0 -0 -0 -0 -0 -0 -0 -0 -0
-0 -0 -0 -0 -0 -0 -0 -0 -0 -0 -0 -0 -0 -0 -0 -0 -0 -0 -0 -0 -0 -0 -0 -0 -0 -0 -0 -0 -0 -0 -0 -0 -0 -0 -0 -0 -0 -0 -0 -0 -0 -0 -0 -0
-0 -0 -0 -0 -0 -0 -0 -0 -0 -0 -0 -0 -0 -0 -0 -0 -0 -0 -2 -0 -0 -0 -0 -0 -0 -0 -0 -0 -0 -0 -0 -0 -0 -0 -0 -0 -0 -0 -0 -0 -0 -0 -0 -0
-0 -0 -0 -0 -0 -0 -0 -0 -0 -0 -0 -0 -0 -0 -0 -0 -0 -7 -0 -0 -0 -0 -0 -0 -0 -0 -0 -0 -0 -0 -0 -0 -0 -0 -0 -0 -0 -0 -0 -0 -0 -0 -0 -0
-0 -0 -0 -0 -0 -0 -0 -0 -0 -0 -0 -0 -0 -0 -0 -0 -0 -0 -0 -0 -0 -0 -0 -0 -0 -0 -0 -0 -0 -0 -0 -0 -0 -0 -0 -0 -0 -0 -0 -0 -0 -0 -0 -0
-0 -0 -0 -0 -0 -0 -0 -0 -0 -0 -0 -0 -0 -0 -0 -0 -2 -2 -0 -0 -0 -0 -0 -0 -0 -0 -0 -0 -0 -0 -0 -0 -0 -0 -0 -0 -0 -0 -0 -0 -0 -0 -0 -0
-0 -0 -0 -0 -0 -0 -0 -0 -0 -0 -0 -0 -0 -0 -0 -0 -0 -0 -0 -0 -0 -0 -0 -0 -0 -0 -0 -0 -0 -0 -0 -0 -0 -0 -0 -0 -0 -0 -0 -0 -0 -0 -0 -0
-0 -0 -0 -0 -0 -0 -0 -0 -0 -0 -0 -0 -0 -0 -0 -0 -0 -0 -0 -0 -0 -0 -0 -0 -0 -0 -0 -0 -0 -0 -0 -0 -0 -0 -0 -0 -0 -0 -0 -0 -0 -0 -0 -0
-0 -0 -0 -0 -0 -0 -0 -0 -0 -0 -0 -0 -0 -0 -0 -0 -0 -0 -0 -1 -3 -2 -0 -0 -0 -0 -0 -0 -0 -0 -0 -0 -0 -0 -0 -0 -0 -0 -0 -0 -0 -0 -0 -0
-0 -0 -0 -0 -0 -0 -0 -0 -0 -0 -0 -0 -0 -0 -0 -0 -3 -0 -0 -1 -0 -2 -0 -0 -0 -0 -0 -0 -0 -0 -0 -0 -0 -0 -0 -0 -0 -0 -0 -0 -0 -0 -0 -0
-0 -0 -0 -0 -0 -0 -0 -0 -0 -0 -0 -0 -0 -0 -0 -0 -0 -0 -0 -0 -0 -0 -0 -0 -0 -0 -0 -1 -0 -0 -0 -0 -0 -0 -0 -0 -0 -0 -0 -0 -0 -0 -0 -0
-0 -0 -0 -0 -0 -0 -0 -0 -0 -0 -0 -0 -0 -15 -0 -0 -0 -0 -1 -1 -1 -1 -2 -2 -2 -1 -0 -0 -0 -0 -0 -0 -0 -0 -0 -0 -0 -0 -0 -0 -0 -0 -0 -0
-0 -0 -0 -0 -0 -0 -0 -0 -0 -0 -0 -9 -4 -0 -0 -0 -0 -0 -0 -0 -1 -5 -0 -1 -0 -0 -0 -0 -0 -0 -0 -0 -0 -0 -0 -0 -0 -0 -0 -0 -0 -0 -0 -0
-0 -0 -0 -0 -0 -0 -0 -0 -0 -0 -8 -7 -0 -0 -0 -0 -0 -0 -0 -0 -0 -0 -0 -0 -0 -0 -0 -0 -0 -0 -0 -0 -0 -0 -0 -0 -0 -0 -0 -0 -0 -0 -0 -0
-0 -0 -0 -0 -0 -0 -0 -0 -0 -0 -0 -0 -0 -0 -0 -0 -0 -0 -0 -0 -0 -0 -0 -0 -0 -0 -0 -0 -0 -0 -0 -0 -0 -0 -0 -0 -0 -0 -0 -0 -0 -0 -0 -0
-0 -0 -0 -0 -0 -0 -0 -0 -0 -0 -0 -0 -0 -0 -0 -0 -0 -0 -0 -0 -0 -0 -0 -0 -0 -0 -0 -0 -0 -0 -0 -0 -0 -0 -0 -0 -0 -0 -0 -0 -0 -0 -0 -0
-0 -0 -0 -0 -0 -0 -0 -0 -0 -0 -0 -0 -0 -0 -0 -0 -0 -0 -0 -0 -0 -0 -0 -0 -0 -0 -0 -0 -0 -0 -0 -0 -0 -0 -0 -0 -0 -0 -1 -1 -0 -0 -0 -0
-0 -0 -0 -0 -0 -0 -0 -0 -0 -0 -0 -0 -0 -0 -0 -0 -0 -0 -0 -1 -1 -0 -0 -0 -0 -0 -0 -0 -0 -0 -0 -2 -0 -0 -0 -0 -0 -0 -0 -0 -0 -0 -0 -0
-0 -0 -0 -0 -0 -0 -0 -0 -0 -0 -0 -0 -0 -0 -0 -0 -0 -0 -0 -0 -0 -0 -0 -0 -0 -0 -0 -0 -0 -0 -0 -0 -1 -0 -0 -0 -0 -0 -0 -0 -0 -0 -0 -0
-0 -0 -0 -0 -0 -0 -0 -0 -0 -0 -0 -0 -0 -0 -0 -0 -0 -0 -0 -0 -0 -0 -0 -0 -0 -0 -0 -0 -0 -0 -0 -0 -1 -1 -0 -0 -0 -0 -0 -0 -0 -0 -0 -0
-0 -0 -0 -0 -0 -0 -0 -0 -0 -0 -0 -0 -0 -0 -0 -0 -0 -0 -0 -0 -0 -0 -0 -0 -0 -0 -0 -0 -0 -0 -0 -0 -0 -0 -0 -0 -0 -0 -0 -0 -0 -0 -0 -0
-0 -0 -0 -0 -0 -0 -0 -0 -0 -0 -0 -0 -0 -0 -0 -0 -0 -0 -0 -0 -0 -0 -0 -0 -0 -0 -0 -0 -0 -0 -0 -0 -0 -0 -0 -0 -0 -0 -0 -0 -0 -0 -0 -0
-0 -0 -0 -0 -0 -0 -0 -0 -0 -0 -0 -0 -0 -0 -0 -0 -0 -0 -0 -0 -0 -0 -0 -0 -0 -0 -0 -0 -0 -0 -0 -0 -0 -0 -0 -0 -0 -0 -0 -0 -0 -0 -0 -0
-0 -0 -0 -0 -0 -0 -0 -0 -0 -0 -0 -0 -0 -0 -0 -0 -0 -0 -0 -0 -0 -0 -0 -0 -0 -0 -0 -0 -0 -0 -0 -0 -0 -0 -0 -0 -0 -0 -0 -0 -0 -0 -0 -0
-0 -0 -0 -0 -0 -0 -4 -0 -0 -0 -0 -0 -0 -0 -0 -0 -0 -0 -0 -0 -0 -0 -0 -0 -0 -0 -0 -0 -0 -0 -0 -0 -0 -0 -0 -0 -0 -0 -0 -0 -0 -0 -0 -0
-0 -0 -0 -0 -0 -0 -0 -0 -0 -0 -0 -0 -0 -0 -0 -0 -0 -0 -0 -0 -0 -0 -0 -0 -0 -0 -0 -0 -0 -0 -0 -0 -0 -0 -0 -0 -0 -0 -0 -0 -0 -0 -0 -0
Wind_Speed
35 40 40 41 41 37 41 41 47 51 52 50 50 48 46 45 45 48 49 50 49 49 44 43 45 38 30 27 25 24 25 27 30 32 33 34 35 36 36 34 35 31 33 34
44 39 37 41 38 38 37 39 43 44 48 44 42 41 44 46 45 44 42 42 41 43 41 36 32 25 26 26 26 22 24 28 30 32 34 35 35 36 35 32 33 31 39 40
45 37 41 49 38 32 34 35 39 50 47 44 43 42 40 41 39 37 39 41 40 31 27 32 29 32 25 26 23 20 24 28 30 32 35 36 37 36 36 32 32 35 35 35
41 42 52 34 29 33 38 41 41 43 43 39 37 36 35 35 31 36 38 43 35 33 32 32 30 26 23 19 18 22 26 29 31 33 37 38 38 38 37 34 35 34 35 34
41 44 43 38 35 37 41 43 38 35 35 33 33 35 37 29 29 37 42 37 34 30 31 30 29 28 23 21 22 25 28 30 32 35 37 39 39 40 39 37 36 34 34 33
35 45 50 36 32 28 31 43 28 33 36 34 32 40 37 34 35 40 39 36 33 33 31 28 28 26 24 25 26 28 30 32 34 35 36 39 39 39 37 35 34 32 31 30
33 38 35 28 24 25 36 36 33 30 31 28 27 22 17 37 35 30 27 29 27 28 28 27 27 28 27 29 31 32 33 34 35 35 36 36 38 37 35 33 31 30 28 26
27 33 36 17 21 28 28 29 28 22 21 22 8 17 19 19 15 22 26 26 25 27 28 28 28 29 30 31 33 35 36 36 37 37 37 36 36 36 35 32 30 29 27 24
22 23 19 17 24 24 25 23 10 8 4 2 13 16 14 10 16 20 23 24 23 25 26 27 28 29 31 33 35 37 37 37 37 38 36 33 33 34 34 31 29 27 25 22
23 20 19 19 24 23 19 11 4 4 4 2 13 14 10 14 17 21 23 25 24 24 25 26 28 30 32 34 36 37 38 38 39 37 36 34 31 30 31 30 27 24 21 19
22 23 22 19 14 16 14 17 32 12 10 7 17 20 14 27 26 25 24 23 24 26 26 28 30 32 33 35 37 37 38 38 38 36 34 33 29 29 28 27 22 22 16 13
21 17 16 16 20 17 18 25 26 19 18 13 15 22 22 26 27 27 27 26 26 27 28 29 31 33 34 36 37 38 38 37 38 37 33 34 32 29 26 26 18 19 12 8
17 17 13 17 20 16 19 22 21 19 17 19 20 20 24 26 28 27 27 27 28 29 30 31 32 35 36 37 38 38 37 37 36 35 33 38 36 23 29 26 21 20 8 9
16 15 18 18 20 18 19 20 20 20 19 19 18 22 25 27 27 27 28 29 30 31 31 32 35 36 37 38 39 39 38 36 33 35 36 35 38 28 16 25 24 20 10 11
17 12 13 20 21 23 21 22 23 24 23 19 20 23 26 29 29 29 29 30 32 32 32 34 36 37 38 39 40 40 41 39 39 35 36 35 36 28 18 20 25 21 14 9
20 18 18 23 26 23 23 25 26 26 25 24 24 26 27 29 30 31 30 31 33 34 33 35 37 38 39 40 41 41 41 42 39 38 37 36 35 31 23 15 22 23 20 10
19 22 25 25 25 25 26 26 26 27 28 26 27 28 30 33 33 32 32 32 33 32 32 34 37 37 39 39 40 41 41 41 40 38 37 36 34 32 27 19 19 22 24 18
19 20 19 21 25 27 29 29 29 27 27 27 29 31 33 35 35 35 33 33 33 32 33 35 36 38 38 39 39 40 39 40 40 38 37 36 33 32 29 23 20 22 21 21
23 24 26 28 30 31 32 33 32 32 33 34 35 35 35 35 35 37 34 36 36 36 35 36 38 37 38 38 38 39 37 37 39 38 37 35 33 31 28 27 23 22 23 23
29 29 31 32 32 33 35 33 33 35 36 37 38 39 39 37 36 37 35 35 33 32 34 36 37 37 37 37 39 37 37 38 39 39 37 34 32 31 29 28 27 23 25 25
31 33 34 35 36 36 36 37 38 39 38 38 40 41 41 40 36 32 33 35 34 35 37 38 37 37 37 38 38 36 37 38 37 38 37 34 33 31 30 28 26 22 25 28
32 33 34 35 36 37 37 36 35 36 37 37 36 34 33 33 34 34 32 35 36 37 39 40 39 39 39 39 37 37 36 37 37 37 36 35 33 32 31 28 24 23 24 29
32 34 35 35 36 36 36 34 36 36 36 34 32 32 32 33 33 37 40 36 38 39 40 41 41 41 41 40 39 38 37 37 36 37 36 35 34 32 31 28 24 23 24 28
33 34 34 34 35 35 35 35 35 32 31 30 30 32 35 38 39 36 38 41 43 43 44 43 43 43 43 42 41 40 39 38 38 37 36 35 33 32 31 29 27 25 24 27
33 33 33 35 36 34 33 32 32 31 31 33 34 34 35 36 39 42 42 44 45 45 46 46 46 44 44 43 42 41 40 39 39 38 36 35 34 32 31 30 28 27 27 25
32 32 30 30 30 30 29 30 30 31 34 36 37 38 40 40 41 42 42 43 44 45 45 45 45 45 44 43 42 41 40 39 39 38 36 35 34 33 32 30 29 28 26 22
30 30 30 30 30 30 30 31 33 34 34 35 36 36 37 38 39 39 39 40 41 42 43 43 43 44 44 44 43 41 40 39 39 38 37 36 35 34 33 31 29 28 27 24
Wind_Direction
308 309 310 309 309 309 307 306 306 309 308 311 313 314 316 318 320 322 322 322 323 325 327 329 317 311 298 277 270 298 296 312 316 317 318 319 318 311 309 315 305 311 303 292
311 312 312 311 312 310 307 307 306 310 312 316 318 320 321 323 327 329 332 333 333 326 308 301 295 273 258 250 272 311 314 319 318 321 321 322 324 323 326 328 320 322 304 290
312 320 318 314 319 319 320 318 317 314 316 319 318 320 324 328 331 334 336 334 316 290 290 302 299 308 275 248 303 323 327 321 323 323 324 328 331 329 329 335 334 329 314 301
314 320 313 325 330 325 321 319 319 318 320 321 322 324 326 331 335 335 331 315 295 292 292 302 301 305 305 312 332 330 328 326 327 326 325 328 330 330 334 338 339 336 323 307
314 314 316 319 324 325 325 323 324 326 327 327 329 328 325 335 333 329 317 294 292 286 289 298 308 314 315 328 328 327 327 327 328 329 330 330 331 332 336 338 343 342 332 317
320 316 317 325 327 332 332 326 335 331 329 329 328 322 323 328 328 314 310 298 295 297 301 300 312 317 327 325 327 327 331 330 332 334 334 335 337 337 341 343 347 349 341 318
316 317 321 328 335 342 334 335 340 340 340 340 338 334 322 288 284 284 279 287 287 300 302 303 306 313 323 326 327 328 329 328 328 333 334 337 340 340 343 348 353 355 350 320
326 324 326 347 349 341 340 342 345 351 355 355 287 267 268 268 253 268 285 292 295 308 311 316 318 322 322 325 324 324 324 324 325 327 331 336 338 342 343 347 351 358 354 327
326 331 340 343 337 340 341 345 347 0 0 307 282 276 260 239 261 276 294 299 299 308 310 318 318 321 323 321 324 327 330 330 330 329 332 336 338 338 340 343 347 355 354 339
332 337 326 335 337 344 355 4 355 15 16 293 263 263 245 257 270 289 299 310 310 310 311 320 328 331 335 333 333 335 338 337 336 336 334 334 336 337 339 337 342 351 355 356
321 321 327 331 344 350 356 353 317 2 14 17 7 278 309 307 310 303 299 301 312 317 318 330 337 338 340 339 337 339 339 341 345 347 346 341 337 333 334 338 346 346 1 13
320 331 332 335 341 346 346 340 335 344 350 5 3 347 352 329 314 313 311 314 316 316 323 332 336 333 336 338 339 342 345 350 348 351 354 346 338 333 328 325 350 348 17 46
325 332 330 331 334 340 338 337 338 340 346 344 344 347 339 334 323 324 322 320 321 322 326 329 333 332 332 333 339 344 348 349 351 353 355 344 336 346 318 311 335 334 73 90
325 324 325 327 330 337 334 333 333 335 337 339 342 335 329 325 325 325 325 324 321 321 325 330 329 331 331 333 335 340 345 349 354 351 350 348 326 338 351 303 294 312 42 94
334 316 311 323 326 325 327 325 323 323 325 328 331 328 327 322 321 321 323 323 321 323 326 327 328 328 329 331 333 334 337 341 343 348 346 345 336 342 343 318 272 285 319 40
329 328 323 321 320 321 320 318 317 316 316 317 318 319 321 322 320 320 321 322 321 322 325 327 327 328 328 330 331 334 335 335 339 339 342 339 335 325 331 333 290 271 272 309
325 324 323 320 319 317 314 314 313 313 313 313 313 315 316 315 315 315 318 320 320 322 325 327 327 328 329 332 332 333 334 335 336 337 335 333 329 320 316 319 299 280 261 268
346 340 334 328 323 319 316 314 313 313 312 313 313 312 312 312 310 311 314 317 318 319 322 324 325 326 328 330 332 333 335 337 338 336 330 323 322 318 306 308 297 279 275 263
344 338 331 325 321 319 316 313 311 309 309 308 308 309 310 310 310 309 310 308 310 311 317 321 323 325 326 328 331 333 336 337 338 334 324 314 314 318 307 292 290 278 270 262
335 332 327 323 322 320 317 317 315 313 311 310 309 309 308 307 307 307 306 305 309 313 317 319 321 322 324 327 326 327 328 328 327 326 319 308 307 304 296 288 287 284 268 262
329 327 324 321 318 318 316 314 311 310 311 312 310 310 309 309 310 309 307 305 309 312 313 315 317 319 321 322 323 323 321 320 322 317 316 307 303 296 296 298 296 287 271 259
328 327 326 324 321 319 319 318 317 316 315 315 316 316 315 314 313 312 312 309 310 311 310 310 311 312 314 315 317 316 315 313 313 312 312 307 302 298 293 303 307 292 273 258
331 330 329 326 324 322 321 320 319 318 317 316 317 317 316 315 314 310 307 310 310 309 308 308 308 308 307 307 306 306 306 305 305 304 303 304 299 298 292 298 306 295 272 257
335 334 333 331 330 328 325 325 324 325 326 324 322 320 317 313 310 311 309 307 305 304 303 303 303 302 302 301 299 297 296 296 296 298 297 295 297 294 294 283 285 286 277 259
337 336 334 332 330 329 329 329 328 328 327 325 323 322 320 318 314 312 309 307 304 302 299 298 297 296 296 295 293 291 290 289 289 290 291 289 289 290 289 285 273 276 265 265
342 342 342 342 341 341 340 339 335 333 330 326 324 323 320 318 315 313 312 309 307 304 301 298 294 291 290 289 288 286 286 285 285 284 286 286 285 284 283 284 275 269 271 274
350 349 347 345 345 344 342 339 336 334 334 332 330 329 327 324 322 319 316 314 311 308 304 299 294 289 285 283 282 282 282 281 281 281 280 281 279 278 277 279 278 269 267 270